Date String (YYYY-MM-DD hh:mm:ss) UTC,Instrument flags,absolute air pressure of the measurement (hPa),sample flow rate (lpm),inlet stack bypass flow (lpm),air temperature of the measurement (°C),ambient temperature measured by the external sensor (°C),aerosol sample conditioner tube jacket temperature (°C),OPC LED temperature (°C),internal box temperature (°C),relative humidity of the measurement (%),span deviation,mass concentration of particles derived from Lorenz-Mie calculation of OPC scattering (μg/m³),mass concentration of particles derived from Lorenz-Mie calculation of OPC scattering (μg/m³),mass concentration of particles derived from Lorenz-Mie calculation of OPC scattering (μg/m³)
DateTimeUTC,F1_M11,P_M11,Q1_M11,Q2_M11,T1_M11,T2_M11,T3_M11,T4_M11,T5_M11,U1_M11,ZSPAN_M11,X0_M11,X2_M11,X1_M11
2024-05-30 05:00:00,SystemResetWarning,0826.8,5.00,000.00,031.1,030.4,000.0,039.3,032.8,011.8,0000.0,0007.90,0002.93,0001.92
2024-05-30 05:01:00,SystemResetWarning,0826.8,5.00,000.00,031.1,030.4,000.0,039.3,032.8,011.6,0000.0,0007.96,0002.91,0001.90
2024-05-30 05:02:00,SystemResetWarning,0826.8,5.01,000.00,031.1,030.4,000.0,039.3,032.8,011.6,0000.0,0006.56,0002.90,0001.88
2024-05-30 05:03:00,SystemResetWarning,0826.8,5.00,000.00,031.1,030.4,000.0,039.4,032.8,011.5,0000.0,0006.95,0002.87,0001.86
2024-05-30 05:04:00,SystemResetWarning,0826.8,5.00,000.00,031.1,030.4,000.0,039.4,032.8,011.5,0000.0,0007.39,0002.85,0001.86
2024-05-30 05:05:00,SystemResetWarning,0826.8,5.00,000.00,031.1,030.3,000.0,039.4,032.8,011.6,0000.0,0007.28,0002.87,0001.86
2024-05-30 05:06:00,SystemResetWarning,0826.8,5.00,000.00,031.1,030.3,000.0,039.4,032.8,011.6,0000.0,0007.50,0002.85,0001.85
2024-05-30 05:07:00,SystemResetWarning,0826.8,5.00,000.00,031.1,030.3,000.0,039.4,032.8,011.7,0000.0,0007.82,0002.84,0001.85
2024-05-30 05:08:00,SystemResetWarning,0826.8,5.00,000.00,031.1,030.3,000.0,039.4,032.8,011.6,0000.0,0007.73,0002.81,0001.86
2024-05-30 05:09:00,SystemResetWarning,0826.8,4.99,000.00,031.1,030.3,000.0,039.4,032.8,011.6,0000.0,0007.84,0002.86,0001.88
2024-05-30 05:10:00,SystemResetWarning,0826.8,4.99,000.00,031.1,030.3,000.0,039.4,032.8,011.6,0000.0,0008.03,0002.87,0001.88
2024-05-30 05:11:00,SystemResetWarning,0826.8,5.00,000.00,031.1,030.3,000.0,039.4,032.8,011.6,0000.0,0007.99,0002.82,0001.87
2024-05-30 05:12:00,SystemResetWarning,0826.8,5.00,000.00,031.1,030.3,000.0,039.4,032.8,011.5,0000.0,0008.00,0002.83,0001.86
2024-05-30 05:13:00,SystemResetWarning,0826.8,5.01,000.00,031.1,030.3,000.0,039.4,032.8,011.2,0000.0,0008.25,0002.84,0001.86
2024-05-30 05:14:00,SystemResetWarning,0826.8,5.01,000.00,031.1,030.3,000.0,039.4,032.8,011.5,0000.0,0008.04,0002.90,0001.87
2024-05-30 05:15:00,SystemResetWarning,0826.8,5.00,000.00,031.1,030.3,000.0,039.4,032.8,011.6,0000.0,0007.65,0002.93,0001.87
2024-05-30 05:16:00,SystemResetWarning,0826.8,4.99,000.00,031.1,030.3,000.0,039.4,032.8,011.4,0000.0,0007.60,0002.91,0001.89
2024-05-30 05:17:00,SystemResetWarning,0826.8,4.99,000.00,031.1,030.4,000.0,039.4,032.8,011.3,0000.0,0007.32,0002.91,0001.90
2024-05-30 05:18:00,SystemResetWarning,0826.9,5.00,000.00,031.1,030.4,000.0,039.4,032.8,011.4,0000.0,0007.35,0002.94,0001.91
2024-05-30 05:19:00,SystemResetWarning,0826.9,5.01,000.00,031.1,030.4,000.0,039.4,032.8,011.4,0000.0,0007.61,0003.00,0001.92
2024-05-30 05:20:00,SystemResetWarning,0826.9,5.01,000.00,031.1,030.4,000.0,039.4,032.8,011.2,0000.0,0007.68,0003.03,0001.92
2024-05-30 05:21:00,SystemResetWarning,0826.9,5.00,000.00,031.2,030.4,000.0,039.4,032.8,011.2,0000.0,0007.54,0003.02,0001.91
2024-05-30 05:22:00,SystemResetWarning,0826.9,4.99,000.00,031.2,030.4,000.0,039.5,032.8,011.3,0000.0,0007.74,0003.03,0001.92
2024-05-30 05:23:00,SystemResetWarning,0826.9,4.99,000.00,031.2,030.4,000.0,039.5,032.9,011.3,0000.0,0008.07,0002.98,0001.91
2024-05-30 05:24:00,SystemResetWarning,0826.9,5.00,000.00,031.2,030.4,000.0,039.5,032.9,011.3,0000.0,0007.98,0002.92,0001.91
2024-05-30 05:25:00,SystemResetWarning,0826.9,5.01,000.00,031.2,030.4,000.0,039.5,032.9,011.3,0000.0,0007.87,0002.86,0001.91
2024-05-30 05:26:00,SystemResetWarning,0826.8,5.00,000.00,031.2,030.4,000.0,039.5,032.9,011.3,0000.0,0007.89,0002.87,0001.91
2024-05-30 05:27:00,SystemResetWarning,0826.8,4.99,000.00,031.2,030.4,000.0,039.5,032.9,011.3,0000.0,0008.31,0002.89,0001.90
2024-05-30 05:28:00,SystemResetWarning,0826.8,5.00,000.00,031.2,030.4,000.0,039.5,032.8,011.2,0000.0,0008.35,0002.92,0001.89
2024-05-30 05:29:00,SystemResetWarning,0826.8,4.99,000.00,031.2,030.4,000.0,039.5,032.8,011.2,0000.0,0008.64,0002.93,0001.87
2024-05-30 05:30:00,SystemResetWarning,0826.8,4.99,000.00,031.2,030.4,000.0,039.5,032.9,011.2,0000.0,0010.07,0002.93,0001.85
2024-05-30 05:31:00,SystemResetWarning,0826.8,5.01,000.00,031.2,030.4,000.0,039.5,032.9,011.3,0000.0,0010.45,0002.95,0001.85
2024-05-30 05:32:00,SystemResetWarning,0826.8,5.01,000.00,031.2,030.4,000.0,039.5,032.9,011.2,0000.0,0010.68,0002.98,0001.86
2024-05-30 05:33:00,SystemResetWarning,0826.8,5.00,000.00,031.2,030.4,000.0,039.5,032.9,011.0,0000.0,0010.77,0002.91,0001.85
2024-05-30 05:34:00,SystemResetWarning,0826.8,5.00,000.00,031.2,030.4,000.0,039.5,032.9,011.1,0000.0,0010.27,0002.91,0001.84
2024-05-30 05:35:00,SystemResetWarning,0826.8,5.01,000.00,031.2,030.4,000.0,039.5,032.9,011.3,0000.0,0009.88,0003.03,0001.84
2024-05-30 05:36:00,SystemResetWarning,0826.8,5.00,000.00,031.2,030.4,000.0,039.5,032.9,011.3,0000.0,0009.91,0003.03,0001.82
2024-05-30 05:37:00,SystemResetWarning,0826.8,5.00,000.00,031.2,030.4,000.0,039.5,032.9,011.3,0000.0,0009.82,0002.97,0001.81
2024-05-30 05:38:00,SystemResetWarning,0826.8,5.00,000.00,031.2,030.4,000.0,039.5,032.9,011.3,0000.0,0009.67,0002.94,0001.80
2024-05-30 05:39:00,SystemResetWarning,0826.8,4.99,000.00,031.2,030.4,000.0,039.5,032.9,011.3,0000.0,0009.80,0002.91,0001.79
2024-05-30 05:40:00,SystemResetWarning,0826.7,4.99,000.00,031.2,030.4,000.0,039.5,032.9,011.3,0000.0,0009.42,0002.87,0001.80
2024-05-30 05:41:00,SystemResetWarning,0826.6,5.00,000.00,031.2,030.4,000.0,039.5,032.9,011.4,0000.0,0007.96,0002.86,0001.79
2024-05-30 05:42:00,SystemResetWarning,0826.6,5.00,000.00,031.2,030.4,000.0,039.5,032.9,011.4,0000.0,0008.20,0002.82,0001.79
2024-05-30 05:43:00,SystemResetWarning,0826.6,5.01,000.00,031.2,030.4,000.0,039.5,032.8,011.4,0000.0,0007.91,0002.79,0001.78
2024-05-30 05:44:00,SystemResetWarning,0826.6,4.97,000.00,031.0,028.5,000.0,039.6,031.8,011.5,0000.0,0007.70,0002.83,0001.79
2024-05-30 05:45:00,SystemResetWarning,0826.6,5.03,000.00,030.5,026.7,000.0,039.5,030.9,011.7,0000.0,0007.86,0002.88,0001.81
2024-05-30 05:46:00,SystemResetWarning,0826.6,5.00,000.00,030.2,026.8,000.0,039.4,030.8,011.9,0000.0,0007.77,0002.81,0001.82
2024-05-30 05:47:00,SystemResetWarning,0826.6,4.99,000.00,030.1,027.2,000.0,039.3,031.1,012.0,0000.0,0008.09,0002.83,0001.82
2024-05-30 05:48:00,SystemResetWarning,0826.6,5.02,000.00,030.1,027.6,000.0,039.1,031.3,012.0,0000.0,0008.71,0002.87,0001.83
2024-05-30 05:49:00,SystemResetWarning,0826.6,4.99,000.00,030.1,028.0,000.0,039.0,031.5,012.0,0000.0,0008.61,0002.88,0001.84
2024-05-30 05:50:00,SystemResetWarning,0826.6,5.00,000.00,030.1,028.3,000.0,038.9,031.6,012.0,0000.0,0008.45,0002.88,0001.86
2024-05-30 05:51:00,SystemResetWarning,0826.6,5.00,000.00,030.1,028.5,000.0,038.9,031.7,011.9,0000.0,0008.36,0002.89,0001.86
2024-05-30 05:52:00,SystemResetWarning,0826.6,5.01,000.00,030.2,028.7,000.0,038.8,031.8,011.9,0000.0,0008.15,0002.90,0001.87
2024-05-30 05:53:00,SystemResetWarning,0826.6,5.01,000.00,030.2,028.9,000.0,038.8,031.8,011.9,0000.0,0008.18,0002.91,0001.87
2024-05-30 05:54:00,SystemResetWarning,0826.6,5.00,000.00,030.2,029.1,000.0,038.8,031.9,011.7,0000.0,0008.31,0003.00,0001.89
2024-05-30 05:55:00,SystemResetWarning,0826.6,5.00,000.00,030.2,029.2,000.0,038.8,031.9,011.7,0000.0,0008.28,0003.00,0001.89
2024-05-30 05:56:00,SystemResetWarning,0826.6,5.00,000.00,030.2,029.3,000.0,038.7,032.0,011.8,0000.0,0008.18,0002.97,0001.89
2024-05-30 05:57:00,SystemResetWarning,0826.6,4.99,000.00,030.3,029.4,000.0,038.7,032.0,011.7,0000.0,0008.31,0003.03,0001.90
2024-05-30 05:58:00,SystemResetWarning,0826.6,5.00,000.00,030.3,029.4,000.0,038.7,032.0,011.7,0000.0,0008.09,0003.03,0001.91
2024-05-30 05:59:00,SystemResetWarning,0826.6,5.00,000.00,030.3,029.5,000.0,038.7,032.0,011.7,0000.0,0007.42,0003.00,0001.92
